• In Czech Republic
  • List of Countries
  • For 7 days
  • Water Temperature
  • Satellite Maps
  • Weather Map
  • Weather Widgets
  • user-avatar
    Login

    Hourly Weather Algemesi

    Today, 22 September, Saturday

    Time Temperature Precipitation Wind Pressure Humidity
    00:00 +29°C° 0 mm 1 mps 763 mmHg 63%
    01:00 +28°C° 0 mm 1 mps 763 mmHg 63%
    02:00 +28°C° 0 mm 1 mps 763 mmHg 63%
    03:00 +27°C° 0 mm 1 mps 763 mmHg 62%
    04:00 +27°C° 0 mm 1 mps 763 mmHg 63%
    05:00 +27°C° 0 mm 1 mps 764 mmHg 63%
    06:00 +26°C° 0 mm 2 mps 764 mmHg 64%
    07:00 +28°C° 0 mm 2 mps 764 mmHg 59%
    08:00 +29°C° 0 mm 1 mps 764 mmHg 54%
    09:00 +31°C° 0 mm 1 mps 765 mmHg 49%
    10:00 +32°C° 0 mm 2 mps 765 mmHg 44%
    11:00 +35°C° 0 mm 2 mps 764 mmHg 40%
    12:00 +36°C° 0 mm 2 mps 764 mmHg 36%
    13:00 +36°C° 0 mm 3 mps 764 mmHg 34%
    14:00 +37°C° 0 mm 3 mps 764 mmHg 33%
    15:00 +37°C° 0 mm 4 mps 763 mmHg 32%
    16:00 +36°C° 0 mm 4 mps 763 mmHg 36%
    17:00 +35°C° 0 mm 4 mps 763 mmHg 40%
    18:00 +34°C° 0 mm 4 mps 763 mmHg 44%
    19:00 +33°C° 0 mm 4 mps 764 mmHg 49%
    20:00 +31°C° 0 mm 3 mps 764 mmHg 55%
    21:00 +30°C° 0 mm 3 mps 765 mmHg 61%
    22:00 +29°C° 0 mm 2 mps 765 mmHg 63%
    23:00 +29°C° 0 mm 2 mps 764 mmHg 66%

    Tomorrow, 23 September, Sunday

    Time Temperature Precipitation Wind Pressure Humidity
    00:00 +28°C° 0 mm 1 mps 764 mmHg 68%
    01:00 +28°C° 0 mm 1 mps 764 mmHg 67%
    02:00 +28°C° 0 mm 1 mps 764 mmHg 66%
    03:00 +28°C° 0 mm 1 mps 764 mmHg 64%
    04:00 +27°C° 0 mm 1 mps 764 mmHg 64%
    05:00 +27°C° 0 mm 1 mps 764 mmHg 64%
    06:00 +27°C° 0 mm 1 mps 764 mmHg 63%
    07:00 +29°C° 0 mm 1 mps 764 mmHg 56%
    08:00 +31°C° 0 mm 1 mps 765 mmHg 49%
    09:00 +33°C° 0 mm 1 mps 765 mmHg 41%
    10:00 +34°C° 0 mm 1 mps 765 mmHg 38%
    11:00 +36°C° 0 mm 2 mps 764 mmHg 35%
    12:00 +37°C° 0 mm 3 mps 764 mmHg 32%
    13:00 +37°C° 0 mm 3 mps 764 mmHg 32%
    14:00 +37°C° 0 mm 3 mps 763 mmHg 31%
    15:00 +38°C° 0 mm 4 mps 763 mmHg 31%
    16:00 +36°C° 0 mm 4 mps 763 mmHg 36%
    17:00 +35°C° 0 mm 4 mps 763 mmHg 41%
    18:00 +34°C° 0 mm 4 mps 763 mmHg 45%
    19:00 +33°C° 0 mm 3 mps 763 mmHg 50%
    20:00 +31°C° 0 mm 3 mps 764 mmHg 56%
    21:00 +30°C° 0 mm 2 mps 764 mmHg 61%
    22:00 +29°C° 0 mm 2 mps 764 mmHg 63%
    23:00 +29°C° 0 mm 1 mps 764 mmHg 65%

    Day after tomorrow, 24 September, Monday

    Time Temperature Precipitation Wind Pressure Humidity
    00:00 +28°C° 0 mm 1 mps 764 mmHg 68%
    01:00 +28°C° 0 mm 1 mps 763 mmHg 67%
    02:00 +28°C° 0 mm 1 mps 763 mmHg 66%
    03:00 +28°C° 0 mm 1 mps 763 mmHg 66%
    04:00 +27°C° 0 mm 1 mps 763 mmHg 65%
    05:00 +27°C° 0 mm 1 mps 763 mmHg 65%
    06:00 +27°C° 0 mm 1 mps 763 mmHg 64%
    07:00 +28°C° 0 mm 1 mps 764 mmHg 58%
    08:00 +30°C° 0 mm 2 mps 764 mmHg 52%
    09:00 +32°C° 0 mm 2 mps 764 mmHg 46%
    10:00 +34°C° 0 mm 3 mps 764 mmHg 44%
    11:00 +35°C° 0 mm 3 mps 764 mmHg 43%
    12:00 +36°C° 0 mm 4 mps 764 mmHg 41%
    13:00 +36°C° 0 mm 4 mps 763 mmHg 42%
    14:00 +36°C° 0 mm 4 mps 763 mmHg 43%
    15:00 +36°C° 0 mm 4 mps 762 mmHg 43%
    16:00 +34°C° 0 mm 4 mps 762 mmHg 50%
    17:00 +33°C° 0 mm 4 mps 762 mmHg 57%
    18:00 +30°C° 0 mm 4 mps 762 mmHg 64%
    19:00 +30°C° 0 mm 3 mps 763 mmHg 68%
    20:00 +29°C° 0 mm 3 mps 763 mmHg 73%
    21:00 +28°C° 0 mm 3 mps 764 mmHg 78%
    22:00 +27°C° 0 mm 2 mps 764 mmHg 80%
    23:00 +27°C° 0 mm 2 mps 764 mmHg 81%

    25 September, Tuesday

    Time Temperature Precipitation Wind Pressure Humidity
    00:00 +27°C° 0 mm 1 mps 764 mmHg 83%
    01:00 +26°C° 0 mm 1 mps 764 mmHg 84%
    02:00 +26°C° 0 mm 1 mps 764 mmHg 85%
    03:00 +26°C° 0 mm 2 mps 764 mmHg 86%
    04:00 +25°C° 0.2 mm 2 mps 764 mmHg 87%
    05:00 +25°C° 0.2 mm 2 mps 764 mmHg 89%
    06:00 +24°C° 0.2 mm 2 mps 764 mmHg 90%
    07:00 +25°C° 0.4 mm 3 mps 764 mmHg 85%
    08:00 +26°C° 0.4 mm 4 mps 765 mmHg 80%
    09:00 +27°C° 0.4 mm 4 mps 765 mmHg 75%
    10:00 +27°C° 0.1 mm 5 mps 765 mmHg 76%
    11:00 +27°C° 0.1 mm 5 mps 765 mmHg 76%
    12:00 +27°C° 0.1 mm 5 mps 765 mmHg 77%
    13:00 +27°C° 0.1 mm 5 mps 765 mmHg 79%
    14:00 +27°C° 0.1 mm 6 mps 765 mmHg 81%
    15:00 +26°C° 0.1 mm 6 mps 764 mmHg 83%
    16:00 +26°C° 0 mm 6 mps 765 mmHg 84%
    17:00 +24°C° 0 mm 6 mps 765 mmHg 86%
    18:00 +23°C° 0 mm 6 mps 765 mmHg 88%
    19:00 +23°C° 0 mm 5 mps 765 mmHg 88%
    20:00 +23°C° 0 mm 5 mps 766 mmHg 88%
    21:00 +23°C° 0 mm 5 mps 766 mmHg 87%
    22:00 +23°C° 0.1 mm 5 mps 766 mmHg 88%
    23:00 +22°C° 0.1 mm 5 mps 766 mmHg 89%

    26 September, Wednesday

    Time Temperature Precipitation Wind Pressure Humidity
    00:00 +22°C° 0.1 mm 5 mps 766 mmHg 89%
    01:00 +22°C° 0.3 mm 5 mps 766 mmHg 89%
    02:00 +22°C° 0.3 mm 5 mps 766 mmHg 90%
    03:00 +22°C° 0.3 mm 5 mps 766 mmHg 90%
    04:00 +22°C° 0.3 mm 5 mps 766 mmHg 91%
    05:00 +22°C° 0.3 mm 5 mps 766 mmHg 91%
    06:00 +22°C° 0.3 mm 6 mps 766 mmHg 92%
    07:00 +23°C° 0.2 mm 6 mps 766 mmHg 88%
    08:00 +23°C° 0.2 mm 6 mps 766 mmHg 85%
    09:00 +23°C° 0.2 mm 7 mps 766 mmHg 81%
    10:00 +24°C° 0.2 mm 7 mps 766 mmHg 77%
    11:00 +26°C° 0.2 mm 7 mps 766 mmHg 73%
    12:00 +27°C° 0.2 mm 7 mps 766 mmHg 69%
    13:00 +27°C° 0.1 mm 7 mps 766 mmHg 70%
    14:00 +27°C° 0.1 mm 7 mps 766 mmHg 70%
    15:00 +27°C° 0.1 mm 7 mps 766 mmHg 71%
    16:00 +26°C° 0.3 mm 6 mps 766 mmHg 75%
    17:00 +26°C° 0.3 mm 6 mps 766 mmHg 79%
    18:00 +25°C° 0.3 mm 5 mps 766 mmHg 83%
    19:00 +25°C° 0.6 mm 5 mps 767 mmHg 86%
    20:00 +23°C° 0.6 mm 4 mps 767 mmHg 88%
    21:00 +23°C° 0.6 mm 4 mps 767 mmHg 90%
    22:00 +23°C° 0.9 mm 4 mps 767 mmHg 90%
    23:00 +24°C° 0.9 mm 3 mps 767 mmHg 90%

    27 September, Thursday

    Time Temperature Precipitation Wind Pressure Humidity
    00:00 +24°C° 0.9 mm 3 mps 767 mmHg 90%
    01:00 +24°C° 0.5 mm 3 mps 767 mmHg 90%
    02:00 +24°C° 0.5 mm 3 mps 766 mmHg 90%
    03:00 +24°C° 0.5 mm 3 mps 766 mmHg 90%
    04:00 +22°C° 0.4 mm 3 mps 766 mmHg 90%
    05:00 +22°C° 0.4 mm 4 mps 766 mmHg 90%
    06:00 +22°C° 0.4 mm 4 mps 767 mmHg 91%
    07:00 +23°C° 0.2 mm 4 mps 767 mmHg 88%
    08:00 +23°C° 0.2 mm 4 mps 767 mmHg 85%
    09:00 +25°C° 0.2 mm 5 mps 767 mmHg 82%
    10:00 +26°C° 0.1 mm 5 mps 767 mmHg 77%
    11:00 +27°C° 0.1 mm 5 mps 767 mmHg 72%
    12:00 +28°C° 0.1 mm 5 mps 767 mmHg 67%
    13:00 +28°C° 0 mm 5 mps 766 mmHg 65%
    14:00 +28°C° 0 mm 5 mps 766 mmHg 64%
    15:00 +29°C° 0 mm 5 mps 765 mmHg 62%
    16:00 +28°C° 0 mm 5 mps 765 mmHg 68%
    17:00 +26°C° 0 mm 4 mps 765 mmHg 73%
    18:00 +25°C° 0 mm 4 mps 765 mmHg 79%
    19:00 +25°C° 0 mm 3 mps 766 mmHg 84%
    20:00 +24°C° 0 mm 2 mps 766 mmHg 88%
    21:00 +24°C° 0 mm 2 mps 766 mmHg 92%
    22:00 +23°C° 0 mm 1 mps 766 mmHg 93%
    23:00 +23°C° 0 mm 1 mps 765 mmHg 94%
    Show more